Tallahassee Regional Airport
KTLH : now visible

Airfield :











YOU CAN JOIN US ON...

 
LOGIN :

Register | Disclaimer

   EN    FR    IT 

 









Legend :    VFR   Marginal VFR   IFR   Intensive IFR   Very Intensive IFR
Visi :
Ceiling :
>= 8 km
>= 3000ft
5 to 8 km
1000 to 3000 ft
1500m to 5 km
500 to 1000 ft
800 to 1500m
200 to 500 ft
< 800m
< 200 ft
Symbols :   Thunderstorms  Fog  Heavy snow  Heavy precipitations  Wind > 20 kt






- Airport Elevation : 81 ft
- IATA code : TLH


KTLH - Tallahassee Regional

CURRENT METAR :
  • 092153Z 32013KT 10SM SCT130 33/16 A2973 RMK AO2 SLP064 T03330156

EXPIRED METARs :
  • 092053Z 32013KT 10SM SCT100 34/16 A2973 RMK AO2 SLP066 T03390161 58020
  • 091953Z VRB06G17KT 10SM FEW050 SCT250 33/17 A2975 RMK AO2 SLP073 T03280167

TAF KTLH
Valid from the 09 at 18:00 until the 10 at 18:00 UTC


091723Z 0918/1018 29011KT P6SM VCTS SCT030CB BKN060
FM100100 31003KT P6SM FEW060
FM101000 35005KT P6SM BKN080
FM101400 36011KT P6SM BKN080
PROB30 1015/1018 4SM TSRA OVC025CB



MET'MAP, your aeronautical weather chart ! - Copyright ORBIFLY December 2007 - Disclaimer

ORBIFLY MET'MAP TEAM :

Programming & Development : Alexandra Zaïnal
Concept & original design : Baudouin d'Aumeries
Assistance for programming : Marc-Olivier Méhu
Technical & hardware support : Manuel Goepfert

Contact : metmap@orbifly.com




SOURCES & CREDITS :

   NOAA       Earth
Advisory